DONNELLS (DON)

Elevation: 4835' · STANISLAUS R basin · Operator: US Bureau of Reclamation

Provisional data, subject to change.
Query executed Saturday at 7:06:11   clock

Select a sensor type for a plot of data.
Note: Reservoir Flows are daily averages.

Earlier

Date STORAGE    RES CHG    OUTFLOW   
 AF   AF   CFS  
01/14/2016 20725 -399 304
01/15/2016 20396 -329 284
01/16/2016 20046 -350 305
01/17/2016 19711 -335 293
01/18/2016 19382 -329 301
01/19/2016 19093 -289 307
01/20/2016 18839 -254 286
01/21/2016 18575 -264 267
01/22/2016 18306 -269 287
01/23/2016 18163 -143 307
01/24/2016 17922 -241 284
01/25/2016 17663 -259 279
01/26/2016 17450 -213 246
01/27/2016 17160 -290 284
01/28/2016 16930 -230 251
01/29/2016 16919 -11 228
01/30/2016 17933 1014 271
01/31/2016 18335 402 280
02/01/2016 18465 130 268
02/02/2016 18317 -148 323
02/03/2016 18089 -228 335
02/04/2016 17787 -302 370
02/05/2016 17562 -225 304
02/06/2016 17425 -137 259
02/07/2016 17271 -154 281
02/08/2016 17175 -96 287
02/09/2016 17123 -52 298
02/10/2016 17041 -82 328
02/11/2016 16930 -111 339
02/12/2016 17155 225 186
02/13/2016 -- -- --

Later | Latest

Warning! This data is preliminary and subject to revision.

Show DON Map | Plot DON Data | 1 Month DON Data | Real-Time DON Data | DON Info